Regional Weather Roundup
Issued by NWS

Home | Current Version | Previous Version | Graphics & Text | Print | Product List | Glossary On
Versions: 1 2 3 4 5 6 7 8 9 10 11 12 13 14 15 16 17 18 19 20 21 22 23 24 25 26 27 28 29 30 31 32 33 34 35 36 37 38 39 40 41 42 43 44 45 46 47 48 49 50
000
ASUS43 KMKX 232300
RWRWI

WISCONSIN REGIONAL WEATHER ROUNDUP
NATIONAL WEATHER SERVICE MILWAUKEE/SULLIVAN WI
600 PM CDT SUN APR 23 2017

NOTE: "FAIR" INDICATES FEW OR NO CLOUDS BELOW 12,000 FEET WITH NO
SIGNIFICANT WEATHER AND/OR OBSTRUCTIONS TO VISIBILITY.

WIZ001-002-006>008-014>016-023>028-240000-
NORTHWEST WISCONSIN

CITY           SKY/WX    TMP DP  RH WIND       PRES   REMARKS
SUPERIOR ARPT  CLOUDY    36  28  73 E17G23    30.12F WCI  26
ASHLAND        CLOUDY    36  28  73 NE12      30.14S WCI  28
HAYWARD        CLOUDY    42  33  70 NE14      30.05F
SIREN          CLOUDY    49  34  58 NE14G20   30.01F
CUMBERLAND     CLOUDY    54  37  54 NE10      29.98S
RICE LAKE      CLOUDY    58  41  51 N14       29.98F
CHETEK         CLOUDY    62  42  49 NE3       29.97F
LADYSMITH      CLOUDY    59  40  50 N8        30.01F
EAU CLAIRE     NOT AVBL
MENOMONIE      MOSUNNY   68  33  27 S5G17     29.94F
NEW RICHMOND   CLOUDY    65  35  33 CALM      29.94F
OSCEOLA        PTSUNNY   64  43  46 NE7       29.96F
$$

WIZ003>005-009-010-017-018-240000-
NORTH CENTRAL WISCONSIN

CITY           SKY/WX    TMP DP  RH WIND       PRES   REMARKS
MANITOWISH WTR CLOUDY    40  35  80 NE9       30.07F WCI  34
ARBOR VITAE    PTSUNNY   43  35  72 NE9       30.07S
WOODRUFF       PTSUNNY   43  35  72 NE9       30.07S
RHINELANDER    CLOUDY    48  36  63 NE8       30.05F
EAGLE RIVER    MOSUNNY   42  32  68 E8        30.08F
LAND O LAKES   CLOUDY    41  32  69 NE6       30.11F
PHILLIPS       CLOUDY    49  37  64 NE9G16    30.04R
TOMAHAWK       CLOUDY    53  37  53 NE6       30.03F
MEDFORD        CLOUDY    62  40  45 CALM      29.98F
MERRILL        MOSUNNY   60  42  51 CALM      30.01F
$$

WIZ029-030-035-036-043>047-240000-
CENTRAL WISCONSIN

CITY           SKY/WX    TMP DP  RH WIND       PRES   REMARKS
WAUSAU         CLOUDY    59  42  53 SE13      29.99S
MOSINEE        MOSUNNY   57  43  58 SE12G17   30.01S
MARSHFIELD     MOSUNNY   68  36  30 N3        29.96F
STEVENS POINT  MOSUNNY   57  42  57 E15G21    30.02S
WAUPACA        SUNNY     57  41  55 E10       30.05R
WAUTOMA        MOSUNNY   58  44  60 E12G21    30.03R
WISC RAPIDS    MOSUNNY   64  45  49 SE15      30.00S
CAMP DOUGLAS   SUNNY     70  32  24 W9        29.97F
$$

WIZ011>013-019>022-031-037>040-048>050-240000-
NORTHEAST WISCONSIN

CITY           SKY/WX    TMP DP  RH WIND       PRES   REMARKS
ANTIGO         MOSUNNY   53  38  56 E9        30.04S
SHAWANO        SUNNY     53  38  56 E13       30.08R
OCONTO         SUNNY     42  31  64 E14G20    30.11S
STURGEON BAY   MOSUNNY   41  30  65 NE13      30.12S
GREEN BAY      SUNNY     47  38  71 NE17      30.10R
MANITOWOC      NOT AVBL
APPLETON       MOSUNNY   52  37  58 E9        30.05R
CLINTONVILLE   MOSUNNY   52  36  54 E9        30.07R
OSHKOSH        MOSUNNY   51  40  65 E14       30.05R
$$

WIZ032>034-041-042-053>061-240000-
SOUTHWEST WISCONSIN

CITY           SKY/WX    TMP DP  RH WIND       PRES   REMARKS
LA CROSSE      MOSUNNY   73  30  20 SW7       29.96S
SPARTA         SUNNY     71  31  23 W6        29.98S
VIROQUA        MOSUNNY   69  31  24 SW12      30.00S
BOSCOBEL       CLOUDY    72  30  21 W7        29.99S
PRAIRIE DU CHI CLOUDY    71  30  22 SW6       29.98S
PLATTEVILLE    SUNNY     70  32  24 W6        30.01S
$$

WIZ056-057-062-063-064-067-068-240000-
SOUTH CENTRAL WISCONSIN

CITY           SKY/WX    TMP DP  RH WIND       PRES   REMARKS
REEDSBURG      SUNNY     70  33  25 W9        29.98S
BARABOO/DELLS  SUNNY     70  31  23 W8G16     29.98S
LONE ROCK      NOT AVBL
MINERAL POINT  SUNNY     72  30  21 W7        30.01S
MADISON        PTSUNNY   70  34  26 S5        29.99S
MIDDLETON      SUNNY     72  34  25 SW10      30.00R
WATERTOWN      SUNNY     58  42  54 E16       30.02R
MONROE         SUNNY     70  30  23 W6        30.01S
JANESVILLE     MOSUNNY   72  30  21 VRB6      30.01S
$$

WIZ051-052-058>065-066-070>072-240000-
SOUTHEAST WISCONSIN

CITY           SKY/WX    TMP DP  RH WIND       PRES   REMARKS
MILWAUKEE      MOSUNNY   43  36  76 N15       30.10R
WAUKESHA       SUNNY     46  36  66 NE12G23   30.08R
MILWAUKEE/TIMM SUNNY     45  34  65 NE10G17   30.10R
RACINE         SUNNY     43  36  76 NE14      30.10R
KENOSHA        SUNNY     51  39  63 NE9       30.07R
FOND DU LAC    SUNNY     51  36  56 E15       30.06R
SHEBOYGAN      SUNNY     41  34  76 NE20      30.10S
WEST BEND      SUNNY     46  36  66 NE13G18   30.08R
JUNEAU         SUNNY     56  41  57 E15       30.04R
$$

LSZ147-162-240000-
LAKE SUPERIOR

STATION/POSITION TIME  TEMP    WIND        PRES    WAVE
                       AIR SEA DIR/SP/G            HT/PER
                 (UTC) (F)     (DEG/KT/KT) (MB)    (FT/S)
DEVILS ISLAND    2200   34      90/ 11/ 12 1022.6F
PORT WING        2030   37      40/ 12/ 15 1021.7F
SAXON HARBOR     2240   36      50/ 15/ 19 1020.3F
$$

LMZ867-665-643>646-240000-
LAKE MICHIGAN

STATION/POSITION TIME  TEMP    WIND        PRES    WAVE
                       AIR SEA DIR/SP/G            HT/PER
                 (UTC) (F)     (DEG/KT/KT) (MB)    (FT/S)
CHAMBERS ISLAND  2240   38      40/ 14/ 17 1020.3R
N MID LAKE BUOY  2150   37 37   60/ 10/ 10 1022.0F   2/ 4
NORTHPORT PIER   2240   39      80/  9/ 11 1020.7R
KEWAUNEE LAKESHO 2230   39      50/ 15/ 21 1019.4S
SHEBOYGAN LAKESH 2200   38      30/ 20/ 21 1019.6F
PORT WASHINGTON  2240   42      40/ 16/ 20 1020.0S
MILWAUKEE LAKESH 2230   40      20/ 15/ 18   N/A
KENOSHA   LAKESH 2200   42      20/ 19/ 21 1018.3
$$

TC  - TEMPERATURE IN CELSIUS
VSB - VISIBILITY IN STATUTE MILES
WCI - WIND CHILL INDEX
HX  - HEAT INDEX




USA.gov is the U.S. government's official web portal to all federal, state and local government web resources and services.